STARLINK-4535 (53392 NORAD) Tracking and Keplerian Element Data

This shows tracking and keplerian element data for the satellite.

Feedback or suggestion? Click here.




ElementValue
Catalog53392
NameSTARLINK-4535
Epoch Orbit788
Epoch Day270.25001157
Epoch Year2022
RAAN17.9677
Inclination53.2185
Eccentricity0.0001695
Argument of Perigee48.818
Mean Anonmoly134.5511
Mean Motion15.08799108
Decay Rate0.00038909
L11 53392U 22097E 22270.25001157 .00038909 00000+0 24521-2 0 9990
L22 53392 53.2185 17.9677 0001695 48.8180 134.5511 15.08799108 7886

Live tracking and technical data element details for STARLINK-4535 (NORAD 53392). STARLINK-4535 can be tracked NOW for your location showing map with azimuth and elevation plus other details from your city location.

Track the satellite on the map from your city or location and see movement details for azimuth, elevation, latitude, longitude, range, height, and movement on the map or in text.







IsCatalogInMostPopularTable: catalog: 53392, numindb: 3
Update: records affected: 1



GetName: 53392 STARLINK-4535

Hit Count: updated at: Wed, 28 Sep 2022 23:23:06 GMT